{"data":{"norad_id":63326,"intl_designator":"2025-057V","name":"STARLINK-33672","alt_names":[],"object_type":"PAYLOAD","status":"ACTIVE","operator":null,"country":"US","launch_date":"2025-03-18","launch_site_code":"AFETR","launch_vehicle":null,"mission":null,"orbit_class":"UNKNOWN","rcs_meters":null,"size_class":null,"mass_kg":null,"dimensions":null,"purposes":["comms"],"wikipedia_slug":null,"has_3d_model":false,"image_url":null,"decayed_at":null,"tle_current":{"epoch":"2026-05-24T19:43:38.211456Z","epoch_age_seconds":84366,"freshness":"FRESH","line1":"1 63326U 25057V   26144.82197004  .00016750  00000+0  61645-3 0  9990","line2":"2 63326  42.9987 320.6403 0002138 277.0234  83.0375 15.27598407 67421","mean_motion":15.27598407,"eccentricity":0.0002138,"inclination_deg":42.9987,"raan_deg":320.6403,"arg_perigee_deg":277.0234,"mean_anomaly_deg":83.0375,"bstar":0.00061645,"rev_number":6742,"period_min":94.265612833936,"perigee_km":481.52706960982,"apogee_km":484.46088921662,"semimajor_km":6861.1309794132,"source":"CELESTRAK","updated_at":"2026-05-25T13:38:19.960007Z"}}}